SCP
0 0 0 0 0 0 0 0 0 0 0 0 0 0 0 0 0 0 0 0 0 0 0 0 0 0 -0 0 0 0 0 0 0 0 0 0 0 0 0 0 0 0 0 0 0 0 0
0 0 0 0 0 0 0 0 0 0 0 0 0 0 0 0 0 0 0 0 0 0 0 0 0 0 0 -0 0 0 0 0 0 0 0 0 0 0 0 0 0 0 0 0 0 0 0
0 0 0 0 0 0 0 0 0 0 0 0 0 0 0 0 0 0 0 0 0 0 0 0 0 0 0 -0 0 0 0 0 0 0 0 0 0 0 0 0 0 0 0 0 0 0 0
0 0 0 0 0 0 0 0 0 0 0 0 0 0 0 0 0 0 0 0 0 0 0 0 0 0 -0 0 0 0 0 0 0 -0 0 0 0 0 0 0 0 0 0 0 0 0 0
0 0 0 0 0 0 0 0 0 0 0 0 0 0 0 0 0 -0 -0 0 -0 0 0 0 0 0 0 -0 0 0 0 0 0 0 -0 0 0 0 0 0 0 0 0 0 0 0 0
0 0 0 0 0 0 0 0 0 0 0 0 0 0 0 0 0 -0 -0 -0 0 0 0 0 0 0 0 0 -0 0 0 0 0 0 0 0 0 0 0 0 0 0 0 0 0 0 0
0 0 0 0 0 0 0 0 0 0 0 0 0 0 0 0 0 0 0 0 0 0 0 0 0 0 0 0 0 -0 0 0 0 0 0 0 0 0 0 0 0 0 0 0 0 0 0
0 0 0 0 0 0 0 0 0 0 0 0 0 0 0 0 0 0 0 0 0 0 0 0 0 0 0 0 0 0 0 0 0 0 0 0 0 0 0 0 0 0 0 0 0 0 0
0 0 0 0 0 0 0 0 0 0 0 0 0 0 0 0 0 0 0 0 0 0 0 0 0 0 0 0 0 0 0 0 0 0 0 0 0 0 0 0 0 0 0 0 0 0 0
0 0 0 0 0 0 0 0 0 0 0 0 0 0 0 0 0 0 0 0 0 0 0 0 0 0 0 0 0 0 0 0 0 0 0 0 0 0 0 0 0 0 0 0 0 0 0
0 0 0 0 0 0 0 0 0 0 0 0 0 0 0 0 0 0 0 0 0 0 0 -0 0 0 0 0 0 0 0 0 0 0 0 0 0 0 0 0 0 0 0 0 0 0 0
0 0 0 0 0 0 0 0 0 0 0 0 0 0 0 0 0 0 0 0 0 0 0 0 0 0 0 0 0 0 0 0 0 0 0 0 0 0 0 0 0 0 0 0 0 0 0
0 0 0 0 0 0 0 0 0 0 0 0 0 0 0 0 0 0 0 0 0 0 0 0 0 0 0 0 0 0 0 0 0 0 0 0 0 0 0 0 0 0 0 0 0 0 0
0 0 0 0 0 0 0 0 0 0 0 0 0 0 0 0 0 0 0 0 0 0 0 -0 -0 0 0 0 0 0 0 0 0 0 0 0 0 0 0 0 0 0 0 0 0 0 0
0 0 0 0 0 0 0 0 0 0 0 0 0 0 0 0 0 0 0 0 0 0 0 0 -0 0 0 0 0 0 0 0 0 0 0 0 0 0 0 0 0 0 0 0 0 0 0
0 0 0 0 0 0 0 0 0 0 0 0 0 0 0 0 0 0 0 0 0 -0 -0 0 -0 -0 0 0 0 0 0 0 0 0 0 0 0 0 0 0 0 0 0 0 0 0 0
0 0 0 0 0 0 0 0 0 0 0 0 0 0 0 0 0 0 0 0 0 0 -0 -0 -0 -0 -0 0 0 0 0 0 0 0 0 0 0 0 0 0 0 0 0 0 0 0 0
0 0 0 0 0 0 0 0 0 0 0 0 0 0 0 0 0 0 0 0 0 0 0 -0 0 0 -0 0 0 0 0 0 0 0 0 0 0 0 0 0 0 0 0 0 0 0 0
0 0 0 0 0 0 0 0 0 0 0 0 0 0 0 0 0 0 0 0 0 0 0 -0 -0 0 0 0 0 0 0 0 0 0 0 0 0 0 0 0 0 0 0 0 0 0 0
0 0 0 0 0 0 0 0 0 0 0 0 0 0 0 0 0 0 0 0 0 0 -0 -0 0 0 0 0 0 0 0 0 0 0 0 0 0 0 0 0 0 0 0 0 0 0 0
0 0 0 0 0 0 0 0 0 0 -0 0 0 0 0 0 0 0 0 0 0 0 -0 -0 -0 0 0 0 0 0 0 0 0 0 0 0 0 0 0 0 0 0 0 0 0 0 0
0 0 0 0 0 0 0 0 0 -0 -0 0 0 0 0 0 0 0 0 0 0 0 0 -0 -0 0 0 0 0 0 0 0 0 0 0 0 0 0 0 0 0 0 0 0 0 0 0
0 0 0 0 0 0 0 0 0 -0 0 0 0 0 0 0 0 0 0 0 0 0 0 -0 -0 -0 0 0 0 0 0 0 0 0 0 0 0 0 0 0 0 0 0 0 0 0 0
0 0 0 0 0 0 0 -0 -0 -0 0 0 0 0 0 0 0 0 0 0 0 0 0 -0 -0 -0 0 0 0 0 0 0 0 0 0 0 0 0 0 0 0 0 0 0 0 0 0
0 0 0 0 0 0 0 -0 -0 -0 0 0 0 0 0 0 0 0 0 0 0 0 0 -0 -0 -0 0 0 0 0 0 0 0 0 0 0 0 0 0 0 0 0 0 0 0 0 0
0 0 0 0 0 0 0 -0 -0 -0 0 0 0 0 0 0 0 0 0 0 0 0 0 -0 -0 -0 -0 0 0 0 0 0 0 0 0 0 0 0 0 0 0 0 0 0 0 0 0
0 0 0 0 0 0 0 -0 -0 -0 0 0 0 0 0 0 0 0 0 0 0 0 0 -0 -0 -0 -0 -0 -0 0 0 0 0 0 0 0 0 0 0 0 0 0 0 0 0 0 0
0 0 0 0 0 0 0 -0 0 -0 0 0 0 0 0 0 0 0 0 0 0 0 0 -0 0 -0 -0 -0 -0 0 0 0 0 0 0 0 0 0 0 0 0 0 0 0 0 0 0
0 0 0 0 0 0 0 0 0 0 0 0 0 0 0 0 0 0 0 0 0 0 0 0 -0 -0 -0 -0 0 0 0 0 0 0 0 0 0 0 0 0 0 0 0 0 0 0 0
Wind_Speed_500mb
36 39 41 47 48 46 45 37 36 36 34 34 33 26 24 30 32 25 17 17 21 21 18 19 20 21 13 5 7 7 13 4 27 35 23 26 43 36 33 29 44 34 34 28 31 25 17
36 39 38 49 47 46 45 40 38 37 35 32 35 35 22 22 28 23 17 15 19 18 18 21 22 18 8 9 8 8 4 4 20 52 14 28 28 20 30 32 36 47 9 29 24 29 14
35 39 37 39 44 42 44 45 40 36 35 34 37 36 36 21 19 20 17 14 15 17 22 20 19 18 13 10 8 6 9 11 24 45 18 26 33 13 22 26 17 31 31 13 28 43 22
39 43 44 44 44 40 42 44 42 38 35 36 36 39 39 25 19 18 15 15 14 12 15 14 10 12 10 11 16 17 15 11 21 21 38 20 29 12 21 19 18 22 26 27 28 35 21
46 44 44 44 41 42 40 45 42 41 39 37 36 38 38 37 18 18 13 14 10 8 12 13 14 13 9 16 15 17 15 15 23 18 11 17 15 12 11 30 20 22 26 35 18 31 16
49 51 43 43 41 42 38 43 42 42 43 39 36 37 38 35 19 13 9 11 5 7 11 9 9 11 10 13 19 14 14 29 29 23 19 17 11 17 22 26 30 38 29 31 25 25 26
47 52 41 41 39 42 37 41 45 46 47 38 37 35 34 33 16 10 6 5 5 3 3 7 11 13 24 24 8 23 18 31 27 22 9 12 11 29 37 32 8 26 21 27 22 17 26
45 49 44 43 38 40 39 39 42 47 48 40 39 36 30 29 13 8 5 2 2 4 5 6 10 18 20 28 17 24 38 24 33 10 25 6 13 23 24 20 23 32 30 22 12 19 25
43 46 46 41 38 39 38 40 42 47 48 41 41 37 27 19 9 6 7 5 3 9 6 4 8 10 13 25 18 27 18 35 31 17 17 4 19 24 28 22 23 22 29 25 18 18 11
46 47 43 40 39 38 37 39 41 47 45 43 38 35 25 9 3 7 6 7 3 7 3 8 4 8 12 10 16 23 25 12 7 23 8 6 25 24 27 19 24 20 16 20 20 18 12
54 45 45 38 38 38 36 37 41 44 44 39 37 27 17 6 4 8 6 5 1 3 1 10 5 8 10 10 18 14 18 17 12 19 3 5 29 27 34 19 9 9 18 19 13 15 6
47 53 47 35 35 36 36 36 39 42 39 36 31 18 2 3 9 7 7 3 2 3 5 4 5 4 2 12 8 8 12 14 10 10 9 8 3 7 9 8 4 21 24 20 10 7 11
50 51 49 37 34 34 34 35 36 39 35 31 20 4 10 8 6 10 6 3 2 3 3 1 1 3 7 7 7 3 7 12 8 9 6 19 14 4 4 20 18 16 29 9 8 9 8
52 51 49 37 34 32 31 33 34 34 30 24 7 7 13 12 13 13 6 2 4 1 3 4 3 8 4 6 6 5 13 13 6 12 9 6 14 13 3 7 16 27 20 7 12 9 6
58 52 50 39 36 30 28 31 32 29 24 17 5 12 11 18 10 5 2 1 4 6 7 11 4 3 8 8 7 6 1 12 13 19 2 10 5 4 6 2 4 12 11 6 6 3 3
57 54 54 43 37 30 25 28 29 24 17 9 13 12 10 18 8 2 3 3 4 5 2 6 2 3 6 11 5 5 9 9 10 7 7 9 10 5 4 1 14 3 15 7 2 7 8
55 62 62 45 36 30 22 25 24 19 12 5 18 7 10 17 5 2 3 2 4 8 6 5 0 4 3 6 7 7 5 7 5 6 4 10 5 6 11 9 19 10 7 3 5 5 4
62 68 56 42 34 31 21 21 18 14 4 15 13 4 14 17 5 3 4 5 4 7 8 3 2 1 6 8 7 6 7 4 8 8 11 3 8 9 5 3 6 17 22 25 16 10 5
74 52 58 41 35 30 20 18 14 12 10 23 12 8 11 15 4 4 5 6 5 8 7 5 1 1 3 6 4 5 8 3 15 4 5 8 8 8 4 4 5 10 17 18 9 4 14
70 67 56 41 37 29 19 16 12 11 15 29 13 7 8 12 6 4 4 5 6 3 4 4 2 2 3 4 3 9 9 5 11 8 13 6 7 5 11 3 10 18 31 30 26 10 22
78 69 53 43 39 28 20 15 13 11 20 27 14 6 11 8 11 9 4 1 7 6 2 4 4 5 5 6 4 6 7 10 4 10 5 1 4 3 5 6 4 7 26 36 36 38 24
70 76 57 44 41 27 19 18 16 15 24 25 12 10 10 8 7 13 8 8 8 5 3 3 4 5 5 4 3 11 10 9 9 7 4 4 5 3 3 2 8 12 21 24 36 38 42
65 76 61 48 36 28 25 23 19 19 26 14 18 18 12 8 9 9 8 6 7 2 6 8 7 4 5 3 8 7 4 8 11 17 11 12 10 7 5 1 7 14 23 29 19 20 28
67 71 62 48 41 34 29 24 21 18 21 20 21 23 10 8 9 7 6 4 7 5 4 7 6 3 4 4 13 16 16 16 13 10 10 15 13 5 5 7 10 6 2 4 16 19 21
70 73 62 51 44 36 30 26 23 20 19 19 24 16 11 8 6 7 8 6 4 5 4 4 6 7 2 7 5 9 5 7 5 4 5 5 8 6 6 6 11 6 6 5 3 4 3
75 76 62 55 46 39 34 29 25 22 20 19 22 21 11 18 7 10 7 3 6 4 6 3 2 6 4 4 2 6 7 6 10 10 4 9 5 5 4 3 5 4 6 5 6 6 6
86 74 67 56 47 42 35 29 25 23 20 19 21 24 15 16 6 9 4 5 5 4 3 4 8 5 6 7 5 6 6 2 8 9 11 8 4 13 11 7 8 7 8 9 7 6 15
87 76 68 57 51 44 35 29 25 22 19 17 22 25 19 15 16 15 11 7 6 5 3 4 4 2 3 8 7 6 5 7 4 1 5 12 11 7 8 10 13 11 9 5 6 12 17
86 77 68 58 53 44 37 31 26 21 16 20 26 28 34 22 27 36 31 23 16 9 8 7 5 5 4 1 0 2 4 4 3 7 1 8 4 3 9 4 8 6 3 3 4 15 20
Wind_Direction_500mb
335 336 344 343 341 339 342 344 340 342 345 344 341 329 318 325 335 334 313 319 321 320 314 326 335 345 352 304 255 285 353 345 209 187 173 182 177 177 192 191 185 235 189 199 191 177 197
331 332 344 340 340 334 337 338 337 339 342 343 335 335 320 318 325 333 329 319 323 329 313 305 310 323 325 264 234 265 312 9 188 194 161 176 173 178 179 183 191 187 147 184 187 181 182
322 324 323 333 335 335 332 334 335 335 336 334 333 332 330 304 307 322 327 331 323 328 323 303 293 307 287 262 224 276 267 175 162 216 220 151 156 181 158 161 155 171 169 201 172 166 155
318 315 324 324 332 334 329 331 331 334 329 329 327 328 324 318 290 303 315 317 313 324 335 349 337 315 263 264 272 286 262 205 190 199 210 193 161 178 170 146 143 157 176 190 187 185 166
302 305 315 317 324 330 328 329 332 331 329 325 324 322 320 320 298 285 316 319 308 301 311 314 317 315 255 281 284 286 239 179 187 210 190 185 160 152 141 158 162 184 195 200 165 191 169
301 297 307 314 319 325 325 327 330 329 324 322 320 320 317 319 306 278 310 320 282 297 309 306 309 294 239 302 274 264 197 184 176 174 150 174 187 160 174 176 181 187 203 195 193 196 211
290 293 305 314 314 320 321 323 327 331 326 321 321 319 315 314 308 273 297 342 342 291 282 284 296 272 302 294 323 182 187 163 155 167 152 162 198 178 175 191 235 178 161 183 202 179 207
282 288 296 310 313 316 316 320 325 328 327 323 322 321 320 317 314 257 273 128 141 274 288 260 313 319 331 347 49 133 149 147 152 162 102 92 184 156 155 159 166 161 166 173 136 183 206
279 287 287 305 312 311 311 316 324 329 324 323 330 322 320 321 312 225 236 208 208 327 266 239 304 325 353 31 53 62 163 140 153 103 85 50 168 153 163 154 161 170 182 168 159 157 188
280 286 284 303 311 307 307 313 323 327 326 328 332 323 319 313 302 200 231 225 239 337 295 34 32 10 19 63 41 66 74 86 92 131 112 149 153 155 144 139 167 170 214 177 151 176 210
279 279 279 296 308 303 304 310 321 326 328 329 333 320 314 194 175 165 198 189 262 41 140 2 36 1 41 57 143 64 101 61 118 144 159 184 165 164 169 155 154 116 165 166 173 207 245
264 266 275 288 302 299 302 309 320 327 329 333 335 318 263 155 171 179 176 170 63 235 78 12 325 100 94 75 51 117 119 91 63 99 257 124 115 147 147 127 155 141 125 102 106 206 246
257 267 271 282 294 295 299 307 320 326 330 335 337 342 119 100 136 149 142 110 250 25 206 106 64 94 53 80 83 39 139 125 107 162 161 135 139 87 81 125 142 186 158 134 187 208 243
252 256 262 277 285 290 295 305 317 324 328 335 328 140 123 107 113 109 98 216 65 70 128 177 131 138 89 138 46 75 135 154 149 222 114 144 155 156 34 175 176 176 195 180 195 199 196
250 257 259 267 278 281 288 302 314 324 326 329 197 155 134 127 110 125 255 110 145 227 128 137 168 198 119 98 110 121 309 161 183 184 159 130 103 88 43 91 197 170 205 30 92 68 239
248 249 251 261 268 271 281 298 310 320 323 311 175 161 163 141 159 142 277 80 159 219 242 172 178 261 123 121 129 153 177 154 177 223 260 119 114 293 143 112 58 281 142 184 260 203 225
246 242 239 251 256 263 274 294 305 312 316 192 171 158 168 165 166 210 314 238 236 221 232 235 76 119 89 132 131 150 163 154 228 145 152 141 130 124 175 215 200 175 197 205 269 267 270
238 246 230 241 247 256 268 288 295 293 279 176 170 168 170 160 223 234 246 209 219 173 211 244 236 67 155 170 133 138 145 116 178 164 160 89 104 145 161 62 315 242 224 217 229 199 241
248 234 225 232 241 249 260 277 274 267 210 173 164 127 171 175 203 207 250 247 228 180 191 210 217 307 121 181 139 111 138 151 159 110 164 170 125 115 85 320 281 222 212 228 217 19 206
249 225 221 225 236 239 248 256 243 248 197 182 164 143 155 201 235 237 246 180 161 181 159 182 154 123 159 125 348 142 129 108 156 153 139 143 162 234 190 97 176 206 212 214 219 231 242
242 218 220 219 231 230 237 235 221 218 188 179 184 165 160 176 205 205 245 310 157 157 187 181 135 228 209 161 132 144 125 122 101 134 105 143 138 99 92 78 169 228 218 218 216 226 239
238 211 209 213 219 217 222 216 207 197 183 190 169 165 142 146 138 186 208 181 171 138 225 157 130 175 199 216 264 202 153 181 175 165 104 5 110 113 118 77 245 248 228 225 230 238 245
222 212 206 206 210 212 213 205 195 190 186 193 193 169 148 150 175 191 185 136 100 236 70 52 97 181 153 68 325 329 237 164 166 168 151 152 145 171 195 273 269 259 245 222 222 239 245
211 217 204 199 202 202 203 197 187 181 194 206 194 163 160 149 207 184 162 122 119 67 139 45 28 173 53 171 87 98 83 100 116 79 142 157 158 164 173 213 226 90 235 247 235 265 247
208 210 196 194 196 197 196 190 183 178 184 190 184 175 150 126 142 132 138 114 109 92 122 87 0 4 348 165 195 152 130 154 111 72 151 192 173 147 221 212 313 120 141 164 239 59 149
208 197 186 190 191 192 190 184 176 175 178 174 176 176 144 132 162 115 131 92 141 132 151 101 355 12 58 27 91 204 191 155 165 142 129 165 202 217 163 232 247 113 133 159 189 185 22
199 192 183 185 188 187 185 179 173 170 173 170 162 165 137 106 108 119 118 135 109 103 100 61 1 36 14 179 154 201 204 316 193 194 165 161 175 204 200 242 275 245 212 167 221 68 341
192 186 178 181 185 181 180 173 166 162 166 164 154 160 146 101 98 109 108 110 113 78 128 24 145 36 3 218 207 172 209 177 213 339 186 188 183 198 208 220 257 149 123 241 32 332 323
184 178 176 180 180 176 172 168 164 163 166 157 145 145 132 104 118 106 94 86 89 102 111 50 98 30 43 317 104 108 149 198 206 198 216 206 252 208 231 225 66 124 58 342 27 329 328
Wind_Speed_850mb
36 39 41 47 48 46 45 37 36 36 34 34 33 26 24 30 32 25 17 17 21 21 18 19 20 21 13 5 7 7 13 4 27 35 23 26 43 36 33 29 44 34 34 28 31 25 17
36 39 38 49 47 46 45 40 38 37 35 32 35 35 22 22 28 23 17 15 19 18 18 21 22 18 8 9 8 8 4 4 20 52 14 28 28 20 30 32 36 47 9 29 24 29 14
35 39 37 39 44 42 44 45 40 36 35 34 37 36 36 21 19 20 17 14 15 17 22 20 19 18 13 10 8 6 9 11 24 45 18 26 33 13 22 26 17 31 31 13 28 43 22
39 43 44 44 44 40 42 44 42 38 35 36 36 39 39 25 19 18 15 15 14 12 15 14 10 12 10 11 16 17 15 11 21 21 38 20 29 12 21 19 18 22 26 27 28 35 21
46 44 44 44 41 42 40 45 42 41 39 37 36 38 38 37 18 18 13 14 10 8 12 13 14 13 9 16 15 17 15 15 23 18 11 17 15 12 11 30 20 22 26 35 18 31 16
49 51 43 43 41 42 38 43 42 42 43 39 36 37 38 35 19 13 9 11 5 7 11 9 9 11 10 13 19 14 14 29 29 23 19 17 11 17 22 26 30 38 29 31 25 25 26
47 52 41 41 39 42 37 41 45 46 47 38 37 35 34 33 16 10 6 5 5 3 3 7 11 13 24 24 8 23 18 31 27 22 9 12 11 29 37 32 8 26 21 27 22 17 26
45 49 44 43 38 40 39 39 42 47 48 40 39 36 30 29 13 8 5 2 2 4 5 6 10 18 20 28 17 24 38 24 33 10 25 6 13 23 24 20 23 32 30 22 12 19 25
43 46 46 41 38 39 38 40 42 47 48 41 41 37 27 19 9 6 7 5 3 9 6 4 8 10 13 25 18 27 18 35 31 17 17 4 19 24 28 22 23 22 29 25 18 18 11
46 47 43 40 39 38 37 39 41 47 45 43 38 35 25 9 3 7 6 7 3 7 3 8 4 8 12 10 16 23 25 12 7 23 8 6 25 24 27 19 24 20 16 20 20 18 12
54 45 45 38 38 38 36 37 41 44 44 39 37 27 17 6 4 8 6 5 1 3 1 10 5 8 10 10 18 14 18 17 12 19 3 5 29 27 34 19 9 9 18 19 13 15 6
47 53 47 35 35 36 36 36 39 42 39 36 31 18 2 3 9 7 7 3 2 3 5 4 5 4 2 12 8 8 12 14 10 10 9 8 3 7 9 8 4 21 24 20 10 7 11
50 51 49 37 34 34 34 35 36 39 35 31 20 4 10 8 6 10 6 3 2 3 3 1 1 3 7 7 7 3 7 12 8 9 6 19 14 4 4 20 18 16 29 9 8 9 8
52 51 49 37 34 32 31 33 34 34 30 24 7 7 13 12 13 13 6 2 4 1 3 4 3 8 4 6 6 5 13 13 6 12 9 6 14 13 3 7 16 27 20 7 12 9 6
58 52 50 39 36 30 28 31 32 29 24 17 5 12 11 18 10 5 2 1 4 6 7 11 4 3 8 8 7 6 1 12 13 19 2 10 5 4 6 2 4 12 11 6 6 3 3
57 54 54 43 37 30 25 28 29 24 17 9 13 12 10 18 8 2 3 3 4 5 2 6 2 3 6 11 5 5 9 9 10 7 7 9 10 5 4 1 14 3 15 7 2 7 8
55 62 62 45 36 30 22 25 24 19 12 5 18 7 10 17 5 2 3 2 4 8 6 5 0 4 3 6 7 7 5 7 5 6 4 10 5 6 11 9 19 10 7 3 5 5 4
62 68 56 42 34 31 21 21 18 14 4 15 13 4 14 17 5 3 4 5 4 7 8 3 2 1 6 8 7 6 7 4 8 8 11 3 8 9 5 3 6 17 22 25 16 10 5
74 52 58 41 35 30 20 18 14 12 10 23 12 8 11 15 4 4 5 6 5 8 7 5 1 1 3 6 4 5 8 3 15 4 5 8 8 8 4 4 5 10 17 18 9 4 14
70 67 56 41 37 29 19 16 12 11 15 29 13 7 8 12 6 4 4 5 6 3 4 4 2 2 3 4 3 9 9 5 11 8 13 6 7 5 11 3 10 18 31 30 26 10 22
78 69 53 43 39 28 20 15 13 11 20 27 14 6 11 8 11 9 4 1 7 6 2 4 4 5 5 6 4 6 7 10 4 10 5 1 4 3 5 6 4 7 26 36 36 38 24
70 76 57 44 41 27 19 18 16 15 24 25 12 10 10 8 7 13 8 8 8 5 3 3 4 5 5 4 3 11 10 9 9 7 4 4 5 3 3 2 8 12 21 24 36 38 42
65 76 61 48 36 28 25 23 19 19 26 14 18 18 12 8 9 9 8 6 7 2 6 8 7 4 5 3 8 7 4 8 11 17 11 12 10 7 5 1 7 14 23 29 19 20 28
67 71 62 48 41 34 29 24 21 18 21 20 21 23 10 8 9 7 6 4 7 5 4 7 6 3 4 4 13 16 16 16 13 10 10 15 13 5 5 7 10 6 2 4 16 19 21
70 73 62 51 44 36 30 26 23 20 19 19 24 16 11 8 6 7 8 6 4 5 4 4 6 7 2 7 5 9 5 7 5 4 5 5 8 6 6 6 11 6 6 5 3 4 3
75 76 62 55 46 39 34 29 25 22 20 19 22 21 11 18 7 10 7 3 6 4 6 3 2 6 4 4 2 6 7 6 10 10 4 9 5 5 4 3 5 4 6 5 6 6 6
86 74 67 56 47 42 35 29 25 23 20 19 21 24 15 16 6 9 4 5 5 4 3 4 8 5 6 7 5 6 6 2 8 9 11 8 4 13 11 7 8 7 8 9 7 6 15
87 76 68 57 51 44 35 29 25 22 19 17 22 25 19 15 16 15 11 7 6 5 3 4 4 2 3 8 7 6 5 7 4 1 5 12 11 7 8 10 13 11 9 5 6 12 17
86 77 68 58 53 44 37 31 26 21 16 20 26 28 34 22 27 36 31 23 16 9 8 7 5 5 4 1 0 2 4 4 3 7 1 8 4 3 9 4 8 6 3 3 4 15 20
Wind_Direction_850mb
335 336 344 343 341 339 342 344 340 342 345 344 341 329 318 325 335 334 313 319 321 320 314 326 335 345 352 304 255 285 353 345 209 187 173 182 177 177 192 191 185 235 189 199 191 177 197
331 332 344 340 340 334 337 338 337 339 342 343 335 335 320 318 325 333 329 319 323 329 313 305 310 323 325 264 234 265 312 9 188 194 161 176 173 178 179 183 191 187 147 184 187 181 182
322 324 323 333 335 335 332 334 335 335 336 334 333 332 330 304 307 322 327 331 323 328 323 303 293 307 287 262 224 276 267 175 162 216 220 151 156 181 158 161 155 171 169 201 172 166 155
318 315 324 324 332 334 329 331 331 334 329 329 327 328 324 318 290 303 315 317 313 324 335 349 337 315 263 264 272 286 262 205 190 199 210 193 161 178 170 146 143 157 176 190 187 185 166
302 305 315 317 324 330 328 329 332 331 329 325 324 322 320 320 298 285 316 319 308 301 311 314 317 315 255 281 284 286 239 179 187 210 190 185 160 152 141 158 162 184 195 200 165 191 169
301 297 307 314 319 325 325 327 330 329 324 322 320 320 317 319 306 278 310 320 282 297 309 306 309 294 239 302 274 264 197 184 176 174 150 174 187 160 174 176 181 187 203 195 193 196 211
290 293 305 314 314 320 321 323 327 331 326 321 321 319 315 314 308 273 297 342 342 291 282 284 296 272 302 294 323 182 187 163 155 167 152 162 198 178 175 191 235 178 161 183 202 179 207
282 288 296 310 313 316 316 320 325 328 327 323 322 321 320 317 314 257 273 128 141 274 288 260 313 319 331 347 49 133 149 147 152 162 102 92 184 156 155 159 166 161 166 173 136 183 206
279 287 287 305 312 311 311 316 324 329 324 323 330 322 320 321 312 225 236 208 208 327 266 239 304 325 353 31 53 62 163 140 153 103 85 50 168 153 163 154 161 170 182 168 159 157 188
280 286 284 303 311 307 307 313 323 327 326 328 332 323 319 313 302 200 231 225 239 337 295 34 32 10 19 63 41 66 74 86 92 131 112 149 153 155 144 139 167 170 214 177 151 176 210
279 279 279 296 308 303 304 310 321 326 328 329 333 320 314 194 175 165 198 189 262 41 140 2 36 1 41 57 143 64 101 61 118 144 159 184 165 164 169 155 154 116 165 166 173 207 245
264 266 275 288 302 299 302 309 320 327 329 333 335 318 263 155 171 179 176 170 63 235 78 12 325 100 94 75 51 117 119 91 63 99 257 124 115 147 147 127 155 141 125 102 106 206 246
257 267 271 282 294 295 299 307 320 326 330 335 337 342 119 100 136 149 142 110 250 25 206 106 64 94 53 80 83 39 139 125 107 162 161 135 139 87 81 125 142 186 158 134 187 208 243
252 256 262 277 285 290 295 305 317 324 328 335 328 140 123 107 113 109 98 216 65 70 128 177 131 138 89 138 46 75 135 154 149 222 114 144 155 156 34 175 176 176 195 180 195 199 196
250 257 259 267 278 281 288 302 314 324 326 329 197 155 134 127 110 125 255 110 145 227 128 137 168 198 119 98 110 121 309 161 183 184 159 130 103 88 43 91 197 170 205 30 92 68 239
248 249 251 261 268 271 281 298 310 320 323 311 175 161 163 141 159 142 277 80 159 219 242 172 178 261 123 121 129 153 177 154 177 223 260 119 114 293 143 112 58 281 142 184 260 203 225
246 242 239 251 256 263 274 294 305 312 316 192 171 158 168 165 166 210 314 238 236 221 232 235 76 119 89 132 131 150 163 154 228 145 152 141 130 124 175 215 200 175 197 205 269 267 270
238 246 230 241 247 256 268 288 295 293 279 176 170 168 170 160 223 234 246 209 219 173 211 244 236 67 155 170 133 138 145 116 178 164 160 89 104 145 161 62 315 242 224 217 229 199 241
248 234 225 232 241 249 260 277 274 267 210 173 164 127 171 175 203 207 250 247 228 180 191 210 217 307 121 181 139 111 138 151 159 110 164 170 125 115 85 320 281 222 212 228 217 19 206
249 225 221 225 236 239 248 256 243 248 197 182 164 143 155 201 235 237 246 180 161 181 159 182 154 123 159 125 348 142 129 108 156 153 139 143 162 234 190 97 176 206 212 214 219 231 242
242 218 220 219 231 230 237 235 221 218 188 179 184 165 160 176 205 205 245 310 157 157 187 181 135 228 209 161 132 144 125 122 101 134 105 143 138 99 92 78 169 228 218 218 216 226 239
238 211 209 213 219 217 222 216 207 197 183 190 169 165 142 146 138 186 208 181 171 138 225 157 130 175 199 216 264 202 153 181 175 165 104 5 110 113 118 77 245 248 228 225 230 238 245
222 212 206 206 210 212 213 205 195 190 186 193 193 169 148 150 175 191 185 136 100 236 70 52 97 181 153 68 325 329 237 164 166 168 151 152 145 171 195 273 269 259 245 222 222 239 245
211 217 204 199 202 202 203 197 187 181 194 206 194 163 160 149 207 184 162 122 119 67 139 45 28 173 53 171 87 98 83 100 116 79 142 157 158 164 173 213 226 90 235 247 235 265 247
208 210 196 194 196 197 196 190 183 178 184 190 184 175 150 126 142 132 138 114 109 92 122 87 0 4 348 165 195 152 130 154 111 72 151 192 173 147 221 212 313 120 141 164 239 59 149
208 197 186 190 191 192 190 184 176 175 178 174 176 176 144 132 162 115 131 92 141 132 151 101 355 12 58 27 91 204 191 155 165 142 129 165 202 217 163 232 247 113 133 159 189 185 22
199 192 183 185 188 187 185 179 173 170 173 170 162 165 137 106 108 119 118 135 109 103 100 61 1 36 14 179 154 201 204 316 193 194 165 161 175 204 200 242 275 245 212 167 221 68 341
192 186 178 181 185 181 180 173 166 162 166 164 154 160 146 101 98 109 108 110 113 78 128 24 145 36 3 218 207 172 209 177 213 339 186 188 183 198 208 220 257 149 123 241 32 332 323
184 178 176 180 180 176 172 168 164 163 166 157 145 145 132 104 118 106 94 86 89 102 111 50 98 30 43 317 104 108 149 198 206 198 216 206 252 208 231 225 66 124 58 342 27 329 328